STARLINK-30157 (57512 NORAD) Tracking and Keplerian Element Data

This shows tracking and keplerian element data for the satellite.

Feedback or suggestion? Click here.




ElementValue
Catalog57512
NameSTARLINK-30157
Epoch Orbit586
Epoch Day13.00001157
Epoch Year2024
RAAN306.8301
Inclination43.001
Eccentricity0.0001156
Argument of Perigee252.7746
Mean Anonmoly168.9278
Mean Motion15.14362639
Decay Rate-0.00043169
L11 57512U 23113T 24013.00001157 -.00043169 00000+0 -23137-2 0 9996
L22 57512 43.0010 306.8301 0001156 252.7746 168.9278 15.14362639 5867



Live tracking and technical data element details for STARLINK-30157 (NORAD 57512). STARLINK-30157 can be tracked NOW for your location showing map with azimuth and elevation plus other details from your city location.







IsCatalogInMostPopularTable: catalog: 57512, numindb: 27
Update: records affected: 1



GetName: 57512 STARLINK-30157

Hit Count: updated at: Thu, 29 Feb 2024 13:13:19 GMT